DM7LA-WX Weather Reports


time (UTC)temp
C
wind
direction
speed
KPH
gust
KPH
rain 1hr
cm
rain 24hr
cm
rain mn
cm
humidity
%
barometer
mb
20260506175801 8 45 14.5 14.5 0.00 1.37 0.00 80 1006.5
20260506165802 9 315 14.5 14.5 0.00 1.37 0.00 77 1006.3
20260506155801 10 315 9.7 9.7 0.00 1.37 0.00 75 1006.3
20260506145802 10 22 16.1 16.1 0.00 1.37 0.00 77 1006.3
20260506135802 10 45 12.9 12.9 0.00 1.37 0.00 81 1006.4
20260506125802 11 337 12.9 12.9 0.00 1.37 0.00 80 1006.3
20260506115802 11 45 16.1 16.1 0.00 1.37 0.00 80 1006.1
20260506105802 11 22 14.5 14.5 0.00 1.37 0.00 71 1006.3
20260506095802 10 67 17.7 17.7 0.00 1.37 0.00 71 1005.8
20260506085802 10 67 20.9 20.9 0.00 1.37 0.00 75 1005.8
20260506035802 8 67 14.5 14.5 0.00 1.37 0.00 88 1005.2
20260506025801 9 67 12.9 12.9 0.00 1.37 0.00 88 1005.5
20260506015802 8 67 8.0 8.0 0.00 1.37 0.00 84 1005.9
20260506005801 8 67 9.7 9.7 0.00 1.37 0.00 83 1005.9
20260505235802 9 90 17.7 17.7 0.00 1.37 0.00 88 1006.1
20260505225801 9 67 16.1 16.1 0.00 1.37 0.00 85 1006.5
20260505215801 8 45 16.1 16.1 0.00 1.37 0.00 83 1006.8
20260505205802 9 67 14.5 14.5 0.00 1.37 0.00 82 1006.8
20260505195801 9 67 12.9 12.9 0.00 1.37 0.00 83 1007.0
20260505185801 9 67 16.1 16.1 0.00 1.37 0.00 81 1006.7